Location: ????????
(55.3155°N, 39.2900°E)
Time: 23:02:36
(UTC+00:00)

Lacrosse 4 Rocket - Pass Details

Date: 14 April 2024
Orbit: 530 x 592 km, 68.0° (Epoch: 23 May)

Event Time Altitude Azimuth Distance (km) Brightness Sun altitude
Exits shadow 00:16:15 10° 286° (WNW) 1,768 3.6 -15.8°
Maximum altitude 00:19:13 21° 335° (NNW) 1,250 3.3 -15.5°
Drops below altitude 10° 00:22:17 10° 25° (NNE) 1,792 5.1 -15.2°
Sets 00:24:55 0° 42° (NE) 2,684 6.7 -14.9°
